Weather History for Ozark, AL

Change the Weather History Date:

Sunday, October 7, 2012

  Actual Average Record
Temperature  
Mean Temperature 68 °F -  
Max Temperature 78 °F 77 °F 89 °F (1998)
Min Temperature 59 °F 58 °F 44 °F (2001)
Cooling Degree Days 4    
Growing Degree Days 18 (Base 50)    
Moisture  
Dew Point 61 °F    
Average Humidity 83    
Maximum Humidity 100    
Minimum Humidity 62    
Precipitation  
Precipitation 0.00 in - - ()
Sea Level Pressure  
Sea Level Pressure 30.03 in    
Wind  
Wind Speed 7 mph (NNW)    
Max Wind Speed 10 mph    
Max Gust Speed -    
Visibility 10 miles    
Events      
Averages and records for this station are not official NWS values.
T = Trace of Precipitation, MM = Missing Value Source: NWS Daily Summary

Daily Weather History Graph

Daily Weather History Graph

Search for Another Location

Airport:

Trip Planner

Search our weather history database for the weather conditions in past years. The results will help you decide how hot, cold, wet, or windy it might be!

Date:

Astronomy

Oct. 07, 2012 Rise Set
Actual Time 6:40 AM CDT 6:19 PM CDT
Civil Twilight 6:16 AM CDT 6:44 PM CDT
Nautical Twilight 5:48 AM CDT 7:12 PM CDT
Astronomical Twilight 5:20 AM CDT 7:40 PM CDT
Moon 11:45 PM CDT (10/7) 1:02 PM CDT (10/7)
Length of Visible Light 12h 27m
Length of Day
11h 39m
Waning Gibbous, 56% of the Moon is Illuminated
Oct 7
Waning Gibbous
Oct 8
Last Quarter
Oct 15
New
Oct 21
First Quarter
Oct 29
Full

Hourly Weather History & Observations

Time (CDT) Temp. Dew Point Humidity Pressure Visibility Wind Dir Wind Speed Gust Speed Precip Events Conditions
12:55 AM 68.0 °F 65.3 °F 91% 29.98 in 10.0 mi NNW 3.5 mph - N/A   Clear
1:55 AM 67.5 °F 64.9 °F 92% 29.99 in 10.0 mi NNW 5.8 mph - N/A   Clear
2:55 AM 66.0 °F 63.7 °F 92% 29.98 in 10.0 mi NNW 5.8 mph - N/A   Clear
3:55 AM 64.8 °F 62.8 °F 93% 29.99 in 10.0 mi NNW 9.2 mph - N/A   Clear
4:55 AM 63.1 °F 60.8 °F 92% 29.99 in 10.0 mi North 8.1 mph - N/A   Clear
5:51 AM 62.6 °F 60.8 °F 94% 30.00 in 10.0 mi NNW 5.8 mph - N/A   Partly Cloudy
5:55 AM 61.9 °F 60.3 °F 94% 30.00 in 10.0 mi NNW 5.8 mph - N/A   Partly Cloudy
6:17 AM 60.8 °F 60.8 °F 100% 30.01 in 10.0 mi NNW 5.8 mph - N/A   Partly Cloudy
6:55 AM 61.0 °F 59.5 °F 95% 30.01 in 10.0 mi NW 5.8 mph - N/A   Partly Cloudy
7:55 AM 62.1 °F 59.7 °F 92% 30.03 in 10.0 mi NW 10.4 mph - N/A   Clear
8:14 AM 62.6 °F 60.8 °F 94% 30.03 in 10.0 mi NW 9.2 mph - N/A   Mostly Cloudy
8:55 AM 62.6 °F 59.7 °F 90% 30.06 in 10.0 mi NNW 6.9 mph - N/A   Overcast
9:55 AM 63.3 °F 60.1 °F 89% 30.08 in 10.0 mi NNW 6.9 mph - N/A   Overcast
10:04 AM 64.4 °F 60.8 °F 88% 30.08 in 10.0 mi NW 8.1 mph - N/A   Overcast
10:51 AM 64.4 °F 59.0 °F 83% 30.08 in 10.0 mi NNW 9.2 mph - N/A   Overcast
10:55 AM 64.9 °F 59.7 °F 83% 30.08 in 10.0 mi North 8.1 mph - N/A   Overcast
11:27 AM 66.2 °F 60.8 °F 83% 30.08 in 10.0 mi NNW 8.1 mph - N/A   Overcast
11:55 AM 68.7 °F 61.0 °F 76% 30.06 in 10.0 mi NW 6.9 mph - N/A   Mostly Cloudy
11:56 AM 68.0 °F 60.8 °F 78% 30.06 in 10.0 mi NW 6.9 mph - N/A   Scattered Clouds
12:55 PM 72.5 °F 62.2 °F 70% 30.04 in 10.0 mi NNW 8.1 mph - N/A   Clear
1:55 PM 76.1 °F 63.5 °F 65% 30.00 in 10.0 mi NW 9.2 mph - N/A   Clear
2:55 PM 77.7 °F 63.9 °F 62% 29.99 in 10.0 mi North 9.2 mph - N/A   Clear
3:55 PM 77.7 °F 64.0 °F 63% 29.98 in 10.0 mi NW 6.9 mph - N/A   Clear
4:55 PM 75.7 °F 63.5 °F 66% 29.99 in 10.0 mi NNW 9.2 mph - N/A   Scattered Clouds
5:55 PM 73.0 °F 63.0 °F 71% 30.00 in 10.0 mi NW 8.1 mph - N/A   Clear
6:55 PM 70.2 °F 63.0 °F 78% 30.01 in 10.0 mi NNW 6.9 mph - N/A   Mostly Cloudy
7:55 PM 68.0 °F 60.3 °F 76% 30.03 in 10.0 mi North 8.1 mph - N/A   Clear
8:55 PM 65.7 °F 58.8 °F 79% 30.06 in 10.0 mi North 9.2 mph - N/A   Clear
9:55 PM 63.1 °F 57.7 °F 83% 30.06 in 10.0 mi NNW 9.2 mph - N/A   Clear
10:55 PM 61.2 °F 54.9 °F 80% 30.06 in 10.0 mi NNW 8.1 mph - N/A   Clear
11:55 PM 59.4 °F 53.8 °F 82% 30.06 in 10.0 mi North 9.2 mph - N/A   Clear